UAE860 OKKK-OMDB

Flight info

Callsign UAE860
Flight time 1h 15m
Altitude 37000
Route SESRU M677 VUTEB
Aircraft B77W/H-SDE1E2E3FGHIJ2J3J4J5M1RWXY/LB1D1

Departure

Time 2026-05-04 16:42
Airport Kuwait International Airport (OKKK)

Arrival

Time 2026-05-04 17:57
Airport Dubai International Airport (OMDB)
Time Latitude Longitude Altitude Speed Heading
2026-05-04 16:06 29.23871 47.97089 171 ft 0 kts 23°
2026-05-04 16:12 29.23866 47.97087 171 ft 0 kts 23°
2026-05-04 16:34 29.23868 47.97088 171 ft 0 kts 23°
2026-05-04 16:34 29.23869 47.97088 171 ft 0 kts 23°
2026-05-04 16:35 29.23758 47.97083 172 ft 12 kts 342°
2026-05-04 16:36 29.23720 47.97098 172 ft 0 kts 337°
2026-05-04 16:36 29.23725 47.97096 172 ft 2 kts 337°
2026-05-04 16:37 29.23784 47.97050 172 ft 12 kts 310°
2026-05-04 16:37 29.23782 47.96975 172 ft 13 kts 234°
2026-05-04 16:37 29.23717 47.96833 172 ft 0 kts 248°
2026-05-04 16:38 29.23679 47.96739 172 ft 13 kts 244°
2026-05-04 16:39 29.23867 47.96494 171 ft 22 kts 336°
2026-05-04 16:39 29.24050 47.96398 170 ft 10 kts 335°
2026-05-04 16:40 29.24082 47.96305 171 ft 0 kts 245°
2026-05-04 16:40 29.24051 47.96226 175 ft 13 kts 241°
2026-05-04 16:41 29.23802 47.96286 200 ft 24 kts 155°
2026-05-04 16:41 29.22128 47.97171 427 ft 193 kts 154°
2026-05-04 16:42 29.19387 48.00532 2759 ft 221 kts 115°
2026-05-04 16:43 29.17928 48.03860 3889 ft 248 kts 117°
2026-05-04 16:43 29.16331 48.07660 5086 ft 279 kts 115°
2026-05-04 16:43 29.15525 48.09715 5852 ft 288 kts 115°
2026-05-04 16:44 29.12191 48.18189 7004 ft 295 kts 115°
2026-05-04 16:45 29.10499 48.22459 7007 ft 294 kts 115°
2026-05-04 16:46 29.07955 48.28854 7005 ft 295 kts 115°
2026-05-04 16:46 29.06263 48.33098 7015 ft 296 kts 115°
2026-05-04 16:47 29.04547 48.37394 7142 ft 298 kts 115°
2026-05-04 16:47 29.02808 48.41744 8818 ft 305 kts 116°
2026-05-04 16:48 29.00045 48.48637 10703 ft 344 kts 116°
2026-05-04 16:48 28.99365 48.50325 10845 ft 363 kts 116°
2026-05-04 16:49 28.96722 48.56901 11797 ft 407 kts 116°
2026-05-04 16:49 28.94317 48.62893 13322 ft 422 kts 117°
2026-05-04 16:50 28.91853 48.69019 14789 ft 433 kts 117°
2026-05-04 16:50 28.89315 48.75319 16383 ft 441 kts 116°
2026-05-04 16:51 28.86723 48.81740 17898 ft 450 kts 116°
2026-05-04 16:51 28.85406 48.84996 18561 ft 454 kts 116°
2026-05-04 16:51 28.82737 48.91588 19921 ft 461 kts 117°
2026-05-04 16:52 28.80025 48.98274 21270 ft 468 kts 117°
2026-05-04 16:52 28.78654 49.01650 21988 ft 469 kts 117°
2026-05-04 16:53 28.75922 49.08375 23710 ft 465 kts 118°
2026-05-04 16:53 28.71888 49.18277 26044 ft 458 kts 119°
2026-05-04 16:54 28.70534 49.21595 26883 ft 455 kts 119°
2026-05-04 16:55 28.65061 49.34605 28913 ft 475 kts 123°
2026-05-04 16:55 28.61686 49.41315 29083 ft 502 kts 124°
2026-05-04 16:56 28.58103 49.48364 29276 ft 526 kts 124°
2026-05-04 16:56 28.52553 49.59515 29702 ft 549 kts 123°
2026-05-04 16:57 28.50672 49.63311 30005 ft 551 kts 123°
2026-05-04 16:57 28.46902 49.70892 30761 ft 550 kts 124°
2026-05-04 16:58 28.40440 49.81435 31790 ft 536 kts 141°
2026-05-04 16:58 28.38661 49.83368 32047 ft 532 kts 145°
2026-05-04 16:59 28.32800 49.88231 32874 ft 517 kts 155°
2026-05-04 17:00 28.20824 49.97142 34312 ft 513 kts 155°
2026-05-04 17:00 28.11965 50.03851 35247 ft 508 kts 155°
2026-05-04 17:01 28.06088 50.08299 35591 ft 509 kts 155°
2026-05-04 17:01 28.00209 50.12737 36013 ft 507 kts 155°
2026-05-04 17:02 27.94358 50.17151 36471 ft 505 kts 155°
2026-05-04 17:02 27.88547 50.21524 36706 ft 506 kts 155°
2026-05-04 17:03 27.85607 50.23735 36755 ft 507 kts 155°
2026-05-04 17:03 27.76827 50.30336 36781 ft 503 kts 155°
2026-05-04 17:04 27.65198 50.39054 36790 ft 500 kts 155°
2026-05-04 17:05 27.53663 50.47879 36791 ft 502 kts 153°
2026-05-04 17:06 27.45017 50.54556 36795 ft 503 kts 154°
2026-05-04 17:07 27.37292 50.60457 36786 ft 505 kts 154°
2026-05-04 17:07 27.30496 50.65632 36785 ft 506 kts 154°
2026-05-04 17:08 27.21792 50.72261 36785 ft 506 kts 154°
2026-05-04 17:09 27.15991 50.76731 36788 ft 509 kts 150°
2026-05-04 17:09 27.10665 50.82105 36806 ft 519 kts 141°
2026-05-04 17:10 26.98428 50.97029 36786 ft 528 kts 130°
2026-05-04 17:11 26.94558 51.04081 36788 ft 532 kts 127°
2026-05-04 17:12 26.88801 51.14682 36778 ft 532 kts 125°
2026-05-04 17:12 26.85683 51.22250 36782 ft 540 kts 113°
2026-05-04 17:13 26.82211 51.34279 36793 ft 541 kts 112°
2026-05-04 17:14 26.77459 51.50288 36779 ft 542 kts 113°
2026-05-04 17:15 26.73848 51.62306 36776 ft 543 kts 113°
2026-05-04 17:16 26.68992 51.78332 36761 ft 544 kts 113°
2026-05-04 17:17 26.64106 51.94340 36776 ft 543 kts 114°
2026-05-04 17:18 26.58901 52.10170 36768 ft 542 kts 115°
2026-05-04 17:19 26.53719 52.25991 36775 ft 542 kts 114°
2026-05-04 17:20 26.48539 52.41769 36769 ft 541 kts 114°
2026-05-04 17:20 26.44640 52.53597 36761 ft 540 kts 114°
2026-05-04 17:21 26.39534 52.69084 36761 ft 531 kts 114°
2026-05-04 17:22 26.37010 52.76812 36767 ft 530 kts 114°
2026-05-04 17:23 26.31889 52.92221 36751 ft 531 kts 114°
2026-05-04 17:23 26.29307 52.99907 36639 ft 525 kts 114°
2026-05-04 17:24 26.28037 53.03697 36286 ft 519 kts 114°
2026-05-04 17:24 26.24217 53.15054 34240 ft 524 kts 113°
2026-05-04 17:25 26.22941 53.18847 33763 ft 521 kts 113°
2026-05-04 17:25 26.20440 53.26272 32905 ft 510 kts 113°
2026-05-04 17:26 26.17943 53.33585 32000 ft 500 kts 115°
2026-05-04 17:26 26.13719 53.44041 30652 ft 488 kts 118°
2026-05-04 17:27 26.10906 53.50874 29796 ft 482 kts 117°
2026-05-04 17:27 26.08161 53.57601 28864 ft 474 kts 117°
2026-05-04 17:28 26.05467 53.64218 28027 ft 465 kts 117°
2026-05-04 17:29 26.01512 53.73903 26771 ft 453 kts 117°
2026-05-04 17:29 25.97759 53.83357 25650 ft 440 kts 115°
2026-05-04 17:30 25.94135 53.92624 24403 ft 433 kts 115°
2026-05-04 17:31 25.91726 53.98737 23551 ft 431 kts 115°
2026-05-04 17:31 25.87775 54.07659 22156 ft 426 kts 118°
2026-05-04 17:32 25.85142 54.13511 21299 ft 421 kts 117°
2026-05-04 17:33 25.81392 54.22259 20028 ft 417 kts 111°
2026-05-04 17:33 25.80448 54.25295 19611 ft 415 kts 109°
2026-05-04 17:34 25.77705 54.34360 18370 ft 411 kts 109°
2026-05-04 17:34 25.76803 54.37304 18094 ft 404 kts 109°
2026-05-04 17:35 25.74152 54.45880 17345 ft 381 kts 109°
2026-05-04 17:35 25.72440 54.51399 16531 ft 377 kts 109°
2026-05-04 17:35 25.71587 54.54145 16111 ft 375 kts 109°
2026-05-04 17:36 25.70742 54.56866 15748 ft 372 kts 108°
2026-05-04 17:36 25.69903 54.59563 15408 ft 369 kts 108°
2026-05-04 17:36 25.69061 54.62235 15065 ft 366 kts 109°
2026-05-04 17:36 25.68211 54.64889 14709 ft 364 kts 109°
2026-05-04 17:37 25.67363 54.67525 14366 ft 362 kts 108°
2026-05-04 17:37 25.66522 54.70140 14030 ft 359 kts 108°
2026-05-04 17:37 25.65687 54.72737 13706 ft 357 kts 108°
2026-05-04 17:37 25.64859 54.75317 13445 ft 351 kts 108°
2026-05-04 17:38 25.64055 54.77820 13382 ft 339 kts 108°
2026-05-04 17:38 25.63276 54.80247 13303 ft 328 kts 108°
2026-05-04 17:38 25.62523 54.82589 13226 ft 317 kts 108°
2026-05-04 17:38 25.61792 54.84858 13115 ft 308 kts 108°
2026-05-04 17:39 25.60271 54.89157 12750 ft 294 kts 112°
2026-05-04 17:39 25.59440 54.91224 12439 ft 293 kts 112°
2026-05-04 17:39 25.58612 54.93283 12111 ft 292 kts 112°
2026-05-04 17:40 25.57792 54.95336 11799 ft 290 kts 111°
2026-05-04 17:40 25.56984 54.97378 11500 ft 289 kts 111°
2026-05-04 17:40 25.56183 54.99409 11199 ft 287 kts 111°
2026-05-04 17:40 25.55384 55.01433 10924 ft 285 kts 111°
2026-05-04 17:41 25.54591 55.03432 10664 ft 283 kts 112°
2026-05-04 17:41 25.53678 55.05359 10372 ft 282 kts 117°
2026-05-04 17:41 25.52688 55.07230 10069 ft 281 kts 117°
2026-05-04 17:41 25.51707 55.09068 9797 ft 280 kts 117°
2026-05-04 17:42 25.50713 55.10945 9502 ft 278 kts 117°
2026-05-04 17:42 25.49743 55.12795 9189 ft 277 kts 117°
2026-05-04 17:42 25.48797 55.14611 8882 ft 276 kts 117°
2026-05-04 17:42 25.47842 55.16446 8553 ft 275 kts 117°
2026-05-04 17:43 25.46890 55.18278 8252 ft 274 kts 116°
2026-05-04 17:43 25.45925 55.20088 7890 ft 274 kts 122°
2026-05-04 17:43 25.44713 55.21739 7525 ft 278 kts 130°
2026-05-04 17:43 25.43398 55.23290 7239 ft 276 kts 131°
2026-05-04 17:44 25.42087 55.24828 6963 ft 274 kts 130°
2026-05-04 17:44 25.40794 55.26372 6680 ft 273 kts 129°
2026-05-04 17:44 25.39524 55.27912 6433 ft 270 kts 130°
2026-05-04 17:44 25.38269 55.29446 6158 ft 268 kts 130°
2026-05-04 17:45 25.37018 55.30980 5857 ft 267 kts 130°
2026-05-04 17:45 25.35767 55.32485 5578 ft 264 kts 135°
2026-05-04 17:45 25.34262 55.33658 5183 ft 267 kts 150°
2026-05-04 17:45 25.32620 55.34598 4927 ft 265 kts 152°
2026-05-04 17:46 25.30977 55.35503 4672 ft 262 kts 152°
2026-05-04 17:46 25.29365 55.36403 4517 ft 254 kts 152°
2026-05-04 17:46 25.27818 55.37280 4768 ft 250 kts 152°
2026-05-04 17:46 25.26242 55.38185 5403 ft 261 kts 151°
2026-05-04 17:47 25.24601 55.39136 5935 ft 269 kts 151°
2026-05-04 17:47 25.22920 55.40117 6021 ft 278 kts 151°
2026-05-04 17:47 25.21216 55.41112 6026 ft 276 kts 151°
2026-05-04 17:47 25.19528 55.42099 6013 ft 272 kts 151°
2026-05-04 17:48 25.17851 55.43079 5893 ft 273 kts 151°
2026-05-04 17:48 25.16738 55.43730 5763 ft 274 kts 151°
2026-05-04 17:48 25.15045 55.44721 5481 ft 276 kts 151°
2026-05-04 17:48 25.13346 55.45713 5180 ft 276 kts 151°
2026-05-04 17:49 25.11675 55.46727 4874 ft 271 kts 144°
2026-05-04 17:49 25.10434 55.48222 4534 ft 262 kts 118°
2026-05-04 17:49 25.09528 55.49948 4242 ft 259 kts 120°
2026-05-04 17:49 25.08589 55.51644 3943 ft 259 kts 120°
2026-05-04 17:50 25.07646 55.53333 3633 ft 259 kts 121°
2026-05-04 17:50 25.06701 55.55023 3341 ft 259 kts 121°
2026-05-04 17:50 25.05804 55.56731 3013 ft 255 kts 111°
2026-05-04 17:50 25.05548 55.58633 2672 ft 252 kts 80°
2026-05-04 17:51 25.06187 55.60389 2372 ft 247 kts 49°
2026-05-04 17:51 25.07460 55.61587 2108 ft 238 kts 23°
2026-05-04 17:51 25.08997 55.61920 2043 ft 219 kts 350°
2026-05-04 17:51 25.10392 55.61432 2052 ft 212 kts 334°
2026-05-04 17:52 25.11631 55.60600 2000 ft 207 kts 312°
2026-05-04 17:52 25.12504 55.59345 2028 ft 206 kts 305°
2026-05-04 17:52 25.13302 55.58040 2024 ft 205 kts 303°
2026-05-04 17:52 25.14057 55.56718 2021 ft 201 kts 302°
2026-05-04 17:53 25.14782 55.55415 2048 ft 196 kts 301°
2026-05-04 17:53 25.15468 55.54175 2011 ft 181 kts 302°
2026-05-04 17:53 25.16083 55.53063 2016 ft 159 kts 301°
2026-05-04 17:53 25.16625 55.52082 1982 ft 151 kts 301°
2026-05-04 17:54 25.17175 55.51090 2002 ft 151 kts 301°
2026-05-04 17:54 25.17727 55.50094 2031 ft 152 kts 302°
2026-05-04 17:54 25.18274 55.49105 2013 ft 151 kts 301°
2026-05-04 17:54 25.18822 55.48117 2034 ft 146 kts 301°
2026-05-04 17:55 25.19335 55.47176 1893 ft 145 kts 300°
2026-05-04 17:55 25.19846 55.46214 1643 ft 147 kts 301°
2026-05-04 17:55 25.20385 55.45256 1199 ft 145 kts 303°
2026-05-04 17:55 25.20923 55.44371 958 ft 136 kts 301°
2026-05-04 17:56 25.21397 55.43429 832 ft 143 kts 299°
2026-05-04 17:56 25.21935 55.42482 686 ft 147 kts 302°
2026-05-04 17:56 25.22467 55.41518 527 ft 146 kts 298°
2026-05-04 17:56 25.23000 55.40562 286 ft 145 kts 299°
2026-05-04 17:57 25.23531 55.39616 98 ft 145 kts 300°
2026-05-04 17:57 25.24032 55.38702 35 ft 129 kts 298°
2026-05-04 17:57 25.24375 55.38073 36 ft 54 kts 302°
2026-05-04 17:57 25.24486 55.37852 34 ft 33 kts 306°
2026-05-04 17:58 25.24647 55.37580 33 ft 51 kts 302°
2026-05-04 17:58 25.24822 55.37232 35 ft 46 kts 287°
2026-05-04 17:58 25.24965 55.36930 35 ft 50 kts 302°
2026-05-04 17:58 25.25024 55.36645 29 ft 24 kts 269°
2026-05-04 17:59 25.25026 55.36514 28 ft 10 kts 273°
2026-05-04 17:59 25.25055 55.36392 27 ft 19 kts 294°
2026-05-04 17:59 25.25032 55.36184 26 ft 13 kts 207°
2026-05-04 18:00 25.24972 55.36147 26 ft 2 kts 212°
2026-05-04 18:00 25.24971 55.36146 26 ft 0 kts 212°